"Time","Temp","Dewpoint","Humidity","Pressure","Direction","Speed","Gust","Precip","PrecipRate"
"00:04:56","64.1","59.8","86","29.75","289","2.9","8.4","0.00","0.00"
"00:09:58","64.2","59.9","86","29.75","282","2.7","8.1","0.00","0.00"
"00:14:58","64.2","59.9","86","29.75","331","2.7","7.2","0.00","0.00"
"00:19:56","64.1","59.8","86","29.75","313","2.1","6.9","0.00","0.00"
"00:24:57","64","59.7","86","29.75","319","1.8","6","0.00","0.00"
"00:29:58","63.9","59.6","86","29.75","342","1","4.8","0.00","0.00"
"00:34:58","63.8","59.5","86","29.75","325","1.4","7.2","0.00","0.00"
"00:39:59","63.7","59.5","86.3","29.75","325","2.9","10.8","0.00","0.00"
"00:44:56","63.8","59.6","86.1","29.76","318","3.1","7.2","0.00","0.00"
"00:49:56","63.9","59.6","86","29.76","345","2.7","7.2","0.00","0.00"
"00:54:57","63.9","59.6","86","29.76","336","2.8","6.9","0.00","0.00"
"00:59:57","63.8","59.5","86","29.76","339","2","4.8","0.00","0.00"
"01:04:59","63.7","59.5","86.3","29.76","311","1.6","6","0.00","0.00"
"01:09:57","63.6","59.7","87","29.76","305","2.2","7.2","0.00","0.00"
"01:14:58","63.6","59.5","86.6","29.76","334","3.1","12","0.00","0.00"
"01:19:59","63.7","59.4","86","29.75","321","3.5","9.6","0.00","0.00"
"01:24:58","63.7","59.4","86","29.75","344","1.5","5.8","0.00","0.00"
"01:29:56","63.6","59.3","86","29.76","340","2","7.2","0.00","0.00"
"01:34:56","63.5","59.1","85.5","29.76","341","2.3","8.4","0.00","0.00"
"01:39:57","63.5","58.9","85","29.76","301","2.4","7.2","0.00","0.00"
"01:44:57","63.4","58.8","85","29.76","288","2.7","8.4","0.00","0.00"
"01:49:58","63.4","58.8","85","29.76","325","2.3","8.1","0.00","0.00"
"01:54:58","63.4","58.8","85","29.76","272","1.6","5.8","0.00","0.00"
"01:59:58","63.2","58.8","85.7","29.76","281","1.6","4.8","0.00","0.00"
"02:04:57","63","58.7","86","29.75","287","1.4","4.8","0.00","0.00"
"02:09:59","62.8","58.5","86","29.75","277","1.2","4.8","0.00","0.00"
"02:14:56","62.6","58.6","86.6","29.76","252","1.3","4.8","0.00","0.00"
"02:19:56","62.5","58.6","87","29.76","299","1.8","7.2","0.00","0.00"
"02:24:56","62.4","58.5","87","29.76","314","1.8","8.4","0.00","0.00"
"02:29:57","62.3","58.4","87","29.76","277","2.6","6","0.00","0.00"
"02:34:57","62.2","58.3","87","29.76","263","1","3.6","0.00","0.00"
"02:39:58","62.2","58.3","87","29.76","302","1.5","6","0.00","0.00"
"02:44:59","62.1","58.2","87","29.76","341","3.6","8.4","0.00","0.00"
"02:49:59","62.2","58.3","87","29.75","302","3","8.4","0.00","0.00"
"02:54:56","62.2","58.3","87","29.75","276","2.3","7.2","0.00","0.00"
"02:59:56","62.2","58.3","86.9","29.76","348","2.8","8.4","0.00","0.00"
"03:04:56","62.2","58.2","86.7","29.76","334","2.1","6.9","0.00","0.00"
"03:09:58","62.2","58","86.2","29.76","320","2.9","8.4","0.00","0.00"
"03:14:59","62.2","58","86","29.76","306","2.3","6","0.00","0.00"
"03:19:56","62.1","57.9","86","29.76","347","1.8","6","0.00","0.00"
"03:24:56","62","57.8","86","29.76","313","0.7","3.5","0.00","0.00"
"03:29:57","61.8","57.6","86","29.76","301","1","4.8","0.00","0.00"
"03:34:58","61.7","57.5","86.1","29.76","299","0.5","3.6","0.00","0.00"
"03:39:56","61.5","57.6","87","29.76","300","1","3.6","0.00","0.00"
"03:44:57","61.3","57.4","87","29.76","300","0.4","2.4","0.00","0.00"
"03:49:59","61.2","57.3","87","29.76","299","0.5","3.6","0.00","0.00"
"03:54:59","61.1","57.2","87","29.76","332","1.5","7.2","0.00","0.00"
"03:59:56","61.1","57.2","87","29.76","335","0.8","4.6","0.00","0.00"
"04:04:58","61","57.1","87","29.76","9","0.9","4.8","0.00","0.00"
"04:09:56","61","57.1","87","29.76","16","0.1","1.2","0.00","0.00"
"04:14:56","60.9","57","87","29.77","15","0.3","2.4","0.00","0.00"
"04:19:56","60.7","57.1","87.8","29.77","15","0.1","1.2","0.00","0.00"
"04:24:59","60.6","56.9","87.9","29.77","15","0","1.2","0.00","0.00"
"04:29:56","60.4","56.8","88","29.77","15","0","0","0.00","0.00"
"04:34:56","60.2","56.6","88","29.77","15","0.1","1.2","0.00","0.00"
"04:39:58","59.9","56.6","88.7","29.77","15","0.1","1.2","0.00","0.00"
"04:44:58","59.7","56.5","89","29.77","15","0.4","2.4","0.00","0.00"
"04:49:59","59.4","56.2","89","29.77","15","0","1.2","0.00","0.00"
"04:54:56","59.2","56.2","89.7","29.77","15","0","0","0.00","0.00"
"04:59:56","59","56.1","90","29.78","15","0","0","0.00","0.00"
"05:04:59","58.8","55.9","90","29.78","15","0","0","0.00","0.00"
"05:09:57","58.7","55.9","90.6","29.78","15","0","0","0.00","0.00"
"05:14:58","58.5","55.8","90.6","29.78","15","0","0","0.00","0.00"
"05:19:59","58.3","55.7","91","29.78","15","0","0","0.00","0.00"
"05:24:59","58","55.4","91","29.78","15","0","0","0.00","0.00"
"05:29:56","57.8","55.2","91","29.78","15","0","0","0.00","0.00"
"05:34:56","57.6","55.3","92","29.78","15","0","0","0.00","0.00"
"05:39:58","57.4","55.1","92","29.78","15","0","0","0.00","0.00"
"05:44:59","57.2","54.9","92","29.79","15","0","0","0.00","0.00"
"05:49:59","57.1","54.9","92.4","29.79","15","0","0","0.00","0.00"
"05:54:56","57","54.9","92.8","29.79","15","0.1","1.2","0.00","0.00"
"05:59:57","56.9","54.9","93","29.79","15","0.1","1.2","0.00","0.00"
"06:04:56","56.9","54.9","93.3","29.79","15","0.1","1.2","0.00","0.00"
"06:09:59","56.9","55.2","94","29.79","13","0","1.2","0.00","0.00"
"06:14:56","57.1","55.4","94","29.79","5","0.2","2.4","0.00","0.00"
"06:19:56","57.3","55.6","94","29.79","9","0.4","3.6","0.00","0.00"
"06:24:56","57.6","55.9","94","29.79","9","0.2","2.4","0.00","0.00"
"06:29:57","57.8","56.1","94","29.80","9","0.2","2.4","0.00","0.00"
"06:34:56","58.2","56.2","93.2","29.80","9","0.2","2.4","0.00","0.00"
"06:39:57","58.3","56.3","93","29.80","9","0.1","2.3","0.00","0.00"
"06:44:57","58.4","56.4","93","29.81","5","0","0","0.00","0.00"
"06:49:58","58.5","56.3","92.3","29.81","236","0","1.2","0.00","0.00"
"06:54:58","58.7","56.4","92.1","29.81","236","0","1.2","0.00","0.00"
"06:59:58","58.8","56.5","92","29.81","236","0.1","1.2","0.00","0.00"
"07:04:56","59","56.8","92.3","29.81","237","0.4","3.6","0.00","0.00"
"07:09:57","59.4","57.1","92","29.81","237","0.4","2.4","0.00","0.00"
"07:14:58","60","57.5","91.2","29.81","239","0.3","2.4","0.00","0.00"
"07:19:59","60.7","57.7","89.9","29.81","256","0.3","3.6","0.00","0.00"
"07:24:59","61.3","57.9","88.9","29.81","263","0.7","3.6","0.00","0.00"
"07:29:59","61.8","58.2","87.9","29.82","261","0.6","3.6","0.00","0.00"
"07:34:59","62.3","58.3","86.4","29.82","262","1.5","4.8","0.00","0.00"
"07:39:56","62.8","58.3","85.1","29.82","271","1.3","6","0.00","0.00"
"07:44:56","63.2","58.6","85","29.82","318","1.9","5.8","0.00","0.00"
"07:49:57","63.5","58.7","84.3","29.82","246","2","4.8","0.00","0.00"
"07:54:57","63.8","58.9","84","29.82","204","0.5","2.4","0.00","0.00"
"07:59:58","64.1","58.6","82.4","29.82","307","2.6","7.2","0.00","0.00"
"08:04:57","64.4","59.1","83","29.82","322","1.3","6","0.00","0.00"
"08:09:58","64.8","59.3","82.1","29.82","336","2.7","7.2","0.00","0.00"
"08:14:59","65.2","59.3","81.2","29.83","340","2.1","7.2","0.00","0.00"
"08:19:59","65.6","59.4","80.3","29.83","344","4.9","12","0.00","0.00"
"08:24:59","65.9","59.5","79.7","29.83","301","3.9","14.4","0.00","0.00"
"08:29:59","66.3","59.4","78.4","29.83","347","6.1","20.4","0.00","0.00"
"08:34:56","66.7","59.6","77.9","29.83","304","3.7","12","0.00","0.00"
"08:39:56","67.1","59.5","76.6","29.83","306","5.4","15","0.00","0.00"
"08:44:57","67.5","59.8","76.4","29.84","337","3.5","8.4","0.00","0.00"
"08:49:58","68","60.2","76.3","29.84","306","3.4","10.8","0.00","0.00"
"08:54:59","68.2","59.7","74.3","29.84","318","4.6","12","0.00","0.00"
"08:59:58","68.4","60.2","75","29.84","305","3.2","10.8","0.00","0.00"
"09:04:56","68.7","59.9","73.5","29.84","340","5.3","13.2","0.00","0.00"
"09:09:58","68.5","59.4","72.6","29.84","323","5.5","13.2","0.00","0.00"
"09:14:58","68.6","59.6","73.2","29.84","317","5","23","0.00","0.00"
"09:19:58","68.9","59.7","72.5","29.84","335","5","16.1","0.00","0.00"
"09:24:39","69","59.7","72","29.84","319","6.1","18.4","0.00","0.00"
"09:29:07","69.2","60","72.5","29.84","323","5.3","12.7","0.00","0.00"
"09:34:59","69.6","60.1","71.7","29.84","272","4.3","8.4","0.00","0.00"
"09:39:59","69.8","59.9","70.8","29.84","305","5.6","17.3","0.00","0.00"
"09:44:59","69.9","60.2","71.3","29.84","322","4.5","15","0.00","0.00"
"09:49:59","70.1","60.3","71","29.84","339","3.7","12.7","0.00","0.00"
"09:54:58","70.4","60.5","70.9","29.84","323","4.4","13.2","0.00","0.00"
"09:59:58","70.7","60.8","70.9","29.84","338","4.5","12","0.00","0.00"
"10:04:58","70.8","60.1","69.1","29.83","322","5.9","15.6","0.00","0.00"
"10:09:57","70.7","60.1","69.3","29.83","294","5.4","16.1","0.00","0.00"
"10:14:58","70.8","60.1","69","29.84","329","5.9","15","0.00","0.00"
"10:19:58","71","60.3","69","29.84","338","7.5","21.9","0.00","0.00"
"10:24:59","71","60.1","68.5","29.84","322","5.8","17.3","0.00","0.00"
"10:29:59","71.1","60.4","68.8","29.84","325","5.5","15","0.00","0.00"
"10:34:58","71.5","60.5","68.2","29.83","323","6.8","15.6","0.00","0.00"
"10:39:59","71.5","59.8","66.7","29.83","324","7.2","17.3","0.00","0.00"
"10:44:59","71.6","60.5","68","29.83","339","7.3","16.8","0.00","0.00"
"10:49:56","71.7","60.5","67.9","29.83","313","6.4","17.3","0.00","0.00"
"10:54:56","72","60.8","67.8","29.83","316","5.3","16.8","0.00","0.00"
"10:59:56","72.4","60.8","67.1","29.84","309","5","20.4","0.00","0.00"
"11:04:56","72.8","60.9","66.3","29.84","335","6","18.4","0.00","0.00"
"11:09:56","72.7","60.7","65.9","29.84","326","5.8","17.3","0.00","0.00"
"11:14:57","73.3","61.4","66.3","29.84","327","4.5","13.2","0.00","0.00"
"11:19:56","73.5","61.2","65.3","29.83","295","5.9","13.2","0.00","0.00"
"11:24:57","73.1","60.5","64.9","29.83","342","6.4","18.4","0.00","0.00"
"11:29:57","72.2","60.1","65.9","29.84","333","7.5","18.4","0.00","0.00"
"11:34:57","72.9","61.4","67.4","29.84","336","5.6","18.4","0.00","0.00"
"11:39:58","72.8","60.8","66.1","29.84","293","5.3","18.4","0.00","0.00"
"11:44:58","72.8","61.1","66.8","29.84","302","3.2","10.8","0.00","0.00"
"11:49:59","74.3","62","65.6","29.83","254","3","6.9","0.00","0.00"
"11:54:59","74.4","61.7","64.7","29.83","306","6.2","16.1","0.00","0.00"
"11:59:59","74.4","61.7","64.5","29.83","295","6","16.1","0.00","0.00"
"12:04:56","74.7","61.5","63.4","29.83","317","6.4","20.7","0.00","0.00"
"12:09:56","74.7","61.3","63.2","29.83","319","6.7","18.4","0.00","0.00"
"12:14:58","74.3","60.7","62.6","29.83","336","7.4","18.4","0.00","0.00"
"12:19:59","74.8","61.3","63","29.83","290","6.8","20.7","0.00","0.00"
"12:24:56","74.7","61","62.4","29.83","312","6.1","15","0.00","0.00"
"12:29:57","74.8","61.1","62.3","29.83","335","5.4","17.3","0.00","0.00"
"12:34:58","75","61.6","63.1","29.82","345","5.6","19.6","0.00","0.00"
"12:39:57","75.4","61.2","61.5","29.82","321","4.7","13.2","0.00","0.00"
"12:44:58","75.5","60.8","60.3","29.82","323","5.4","13.2","0.00","0.00"
"12:49:59","76.1","61.6","60.9","29.82","319","6.7","15.6","0.00","0.00"
"12:54:56","76.4","60.5","57.9","29.82","308","5.7","16.1","0.00","0.00"
"12:59:57","77.1","60.6","56.8","29.82","354","6.4","20.7","0.00","0.00"
"13:04:58","77.1","60.7","57.1","29.81","335","5","20.4","0.00","0.00"
"13:09:57","77.1","60.5","56.7","29.81","311","5.9","21.9","0.00","0.00"
"13:14:58","76.8","59.6","55.3","29.81","341","7.8","21.6","0.00","0.00"
"13:19:59","76.8","58.8","53.9","29.81","334","7.1","21.9","0.00","0.00"
"13:24:57","77.2","58.9","53.4","29.81","318","5.9","16.1","0.00","0.00"
"13:29:58","78.3","60.2","53.8","29.81","321","6.8","20.7","0.00","0.00"
"13:34:58","78.3","59.1","51.6","29.80","341","6.5","20.7","0.00","0.00"
"13:39:59","78.1","59.7","53.2","29.80","319","4.5","15.6","0.00","0.00"
"13:44:58","78.4","59.4","52.1","29.80","325","7.9","18.4","0.00","0.00"
"13:49:59","78.6","58.9","50.9","29.80","320","6.5","21.9","0.00","0.00"
"13:54:57","78.4","58.8","51.1","29.80","344","6.8","17.3","0.00","0.00"
"13:59:58","78.2","57.9","49.9","29.80","322","6.7","17.3","0.00","0.00"
"14:04:56","78.5","59.6","52.3","29.80","351","3.6","16.1","0.00","0.00"
"14:09:57","79.4","59.3","50.2","29.80","287","4.7","16.1","0.00","0.00"
"14:14:57","79.6","59.4","50.3","29.80","328","4.5","14.4","0.00","0.00"
"14:19:59","79.5","58.6","49","29.79","334","5.6","20.7","0.00","0.00"
"14:24:58","79.1","58.3","49.1","29.79","331","7.6","17.3","0.00","0.00"
"14:29:59","78.3","57","48","29.79","303","8.6","19.6","0.00","0.00"
"14:34:56","78.4","58.2","49.9","29.79","275","6.6","16.8","0.00","0.00"
"14:39:58","78.8","58.6","50.1","29.79","306","7.1","20.7","0.00","0.00"
"14:44:56","78.9","56.5","46.3","29.79","154","9.3","21.9","0.00","0.00"
"14:49:58","78.7","57","47.4","29.79","306","6","15","0.00","0.00"
"14:54:57","79.5","57.5","46.9","29.79","329","6.5","17.3","0.00","0.00"
"14:59:57","79.5","56.3","45","29.79","349","7.5","21.9","0.00","0.00"
"15:04:56","79.8","56.4","44.8","29.79","336","5.7","18.4","0.00","0.00"
"15:09:57","79.9","56.1","44.1","29.79","314","6.2","15","0.00","0.00"
"15:14:56","79.5","55.8","44.2","29.79","318","5.7","12","0.00","0.00"
"15:19:59","79.6","55.4","43.5","29.79","320","7.6","21.6","0.00","0.00"
"15:24:58","79","55.2","43.9","29.79","349","6.2","19.2","0.00","0.00"
"15:29:56","79.8","56","44.1","29.79","324","5.4","16.1","0.00","0.00"
"15:34:59","80","56","43.9","29.79","289","4.1","18","0.00","0.00"
"15:39:58","80.9","56.4","43.2","29.79","319","5.3","18","0.00","0.00"
"15:44:57","80.4","55.8","43","29.79","313","5.9","18.4","0.00","0.00"
"15:49:56","80.7","55.9","42.7","29.79","312","6.4","15","0.00","0.00"
"15:54:59","80.1","54.6","41.5","29.79","278","5.3","12.7","0.00","0.00"
"15:59:57","79.8","54.7","42","29.79","276","6.2","16.1","0.00","0.00"
"16:04:56","80","54.3","41.3","29.79","307","6.7","19.2","0.00","0.00"
"16:09:56","80.1","54.1","40.8","29.79","297","6.4","19.6","0.00","0.00"
"16:14:56","80.3","54.8","41.6","29.79","282","5.3","18.4","0.00","0.00"
"16:19:59","81","54.1","39.7","29.79","317","5.4","18.4","0.00","0.00"
"16:24:57","80.6","53.5","39.2","29.79","269","4.8","16.1","0.00","0.00"
"16:29:56","80.5","54.3","40.5","29.79","258","4","14.4","0.00","0.00"
"16:34:58","80.3","54.1","40.5","29.79","312","6.1","15","0.00","0.00"
"16:39:58","80.8","55","41.1","29.79","308","3.2","12","0.00","0.00"
"16:44:56","81.6","54.5","39.4","29.79","40","4.8","19.6","0.00","0.00"
"16:49:58","81.1","54.2","39.6","29.79","308","5.8","13.2","0.00","0.00"
"16:54:57","80.1","53.9","40.4","29.79","286","4.4","13.2","0.00","0.00"
"16:59:56","79.7","53.2","40","29.79","310","4.4","12.7","0.00","0.00"
"17:04:59","80","54","40.6","29.79","286","2.4","8.4","0.00","0.00"
"17:09:59","79.8","53.9","40.8","29.79","307","2.6","13.2","0.00","0.00"
"17:14:58","80.2","54.4","41.1","29.79","318","4.5","15","0.00","0.00"
"17:19:57","80.7","54.8","40.9","29.79","282","3.2","7.2","0.00","0.00"
"17:24:59","81.2","55.3","41","29.79","286","3.9","12","0.00","0.00"
"17:29:56","80.3","54.4","40.9","29.79","260","5.2","13.2","0.00","0.00"
"17:34:58","79.6","53.8","41","29.79","263","5.4","17.3","0.00","0.00"
"17:39:56","79.3","54","41.6","29.79","306","3.6","8.1","0.00","0.00"
"17:44:58","79.2","54.3","42.2","29.79","300","2.8","4.8","0.00","0.00"
"17:49:56","79.6","54.7","42.2","29.79","303","4.3","14.4","0.00","0.00"
"17:54:58","79.6","54.4","41.9","29.79","251","3.3","15","0.00","0.00"
"17:59:56","79.8","54.8","42.2","29.79","318","3.1","12","0.00","0.00"
"18:04:58","79.8","54.9","42.4","29.79","327","4.5","12","0.00","0.00"
"18:09:58","79.4","54.2","41.9","29.79","316","5.7","15","0.00","0.00"
"18:14:57","79.1","54.2","42.3","29.79","313","4.6","16.1","0.00","0.00"
"18:19:58","79","53.9","41.9","29.79","310","5.3","12","0.00","0.00"
"18:24:56","79","54.7","43.2","29.79","310","3.8","8.4","0.00","0.00"
"18:29:59","79","54.7","43.2","29.79","310","4.4","10.8","0.00","0.00"
"18:34:56","78.9","54.9","43.7","29.79","305","3.8","10.8","0.00","0.00"
"18:39:59","78.9","55.2","44.2","29.79","284","2.4","7.2","0.00","0.00"
"18:44:56","78.8","55.3","44.3","29.79","268","2.6","8.4","0.00","0.00"
"18:49:56","78.6","55.4","44.8","29.79","304","3.5","10.8","0.00","0.00"
"18:54:58","78.4","55.2","44.8","29.79","334","2.1","8.4","0.00","0.00"
"18:59:58","78.3","55.5","45.5","29.80","237","2.7","7.2","0.00","0.00"
"19:04:59","78.1","55.1","45.2","29.80","319","5.2","17.3","0.00","0.00"
"19:09:58","78","55.1","45.3","29.80","304","2.9","10.4","0.00","0.00"
"19:14:56","77.8","55.2","45.6","29.80","317","5.8","15","0.00","0.00"
"19:19:56","77.5","55.1","46","29.80","313","3.1","7.2","0.00","0.00"
"19:24:56","77.4","55.2","46.5","29.80","310","2.7","8.4","0.00","0.00"
"19:29:57","77.2","55.2","46.7","29.80","313","2.5","7.2","0.00","0.00"
"19:34:57","77","55.4","47.4","29.80","298","2.6","6","0.00","0.00"
"19:39:59","76.7","55.3","47.5","29.80","304","2.7","7.2","0.00","0.00"
"19:44:59","76.6","55.5","48.2","29.81","295","2.4","6","0.00","0.00"
"19:49:56","76.4","55.3","48.1","29.81","265","3.3","7.2","0.00","0.00"
"19:54:57","76.1","55.6","49.2","29.81","233","1.4","6","0.00","0.00"
"19:59:57","75.8","55.5","49.3","29.82","308","1.6","4.8","0.00","0.00"
"20:04:57","75.6","55.1","49","29.82","301","1.8","6","0.00","0.00"
"20:09:56","75.4","55.3","49.5","29.82","302","0.7","4.6","0.00","0.00"
"20:14:58","75.2","55.2","49.8","29.82","318","1.5","6","0.00","0.00"
"20:19:59","75.1","55.3","50.4","29.82","5","0.4","5.8","0.00","0.00"
"20:24:56","74.8","55.3","50.7","29.82","5","0.3","2.4","0.00","0.00"
"20:29:57","74.5","55.1","50.9","29.83","5","0","0","0.00","0.00"
"20:34:58","74.1","55.4","52.1","29.83","5","0.2","1.2","0.00","0.00"
"20:39:59","73.5","55.6","53.6","29.83","5","0.1","1.2","0.00","0.00"
"20:44:57","72.9","55.3","54","29.83","5","0.4","2.4","0.00","0.00"
"20:49:56","72.4","55.4","55.1","29.83","5","0.1","1.2","0.00","0.00"
"20:54:57","72","55.4","56","29.83","12","0","1.2","0.00","0.00"
"20:59:59","71.6","55.8","57.7","29.84","5","0","1.2","0.00","0.00"
"21:04:56","71","56","59","29.84","5","0","0","0.00","0.00"
"21:09:59","70.5","55.9","59.9","29.84","5","0","0","0.00","0.00"
"21:14:58","69.9","55.7","60.8","29.85","5","0","0","0.00","0.00"
"21:19:56","69.5","56","62.1","29.85","5","0","0","0.00","0.00"
"21:24:57","69","56.2","63.7","29.85","5","0","0","0.00","0.00"
"21:29:59","68.5","56.1","64.7","29.85","5","0","0","0.00","0.00"
"21:34:57","68","55.6","64.5","29.85","5","0.2","1.2","0.00","0.00"
"21:39:59","67.7","55.8","65.6","29.85","5","0","1.2","0.00","0.00"
"21:44:57","67.6","56","66.6","29.85","5","0","0","0.00","0.00"
"21:49:58","67.3","56.2","67.5","29.85","5","0","0","0.00","0.00"
"21:54:59","67","56.1","67.9","29.85","5","0","0","0.00","0.00"
"21:59:57","66.8","56","68.2","29.86","5","0","0","0.00","0.00"
"22:04:58","66.5","55.9","68.7","29.86","5","0","0","0.00","0.00"
"22:09:58","66.3","55.8","69","29.86","5","0","0","0.00","0.00"
"22:14:57","66","55.7","69.7","29.87","5","0","0","0.00","0.00"
"22:19:58","65.7","55.5","69.8","29.87","5","0","0","0.00","0.00"
"22:24:56","65.5","55.7","70.7","29.87","5","0","0","0.00","0.00"
"22:29:58","65.2","55.3","70.2","29.87","5","0","0","0.00","0.00"
"22:34:59","65","55.1","70.2","29.87","5","0","0","0.00","0.00"
"22:39:58","64.7","55.3","71.5","29.87","5","0","0","0.00","0.00"
"22:44:56","64.5","55.4","72.2","29.87","5","0","0","0.00","0.00"
"22:49:58","64.3","55.2","72","29.87","5","0","0","0.00","0.00"
"22:54:56","64.2","55.1","72.4","29.87","5","0","0","0.00","0.00"
"22:59:58","63.9","54.7","72","29.87","5","0","0","0.00","0.00"
"23:04:59","63.7","54.9","73.1","29.87","5","0","0","0.00","0.00"
"23:09:58","63.4","55","74","29.87","5","0","0","0.00","0.00"
"23:14:57","63.2","55.1","74.9","29.87","5","0","0","0.00","0.00"
"23:19:59","62.9","54.9","75","29.87","5","0","1.2","0.00","0.00"
"23:24:57","62.7","54.7","74.8","29.87","5","0","0","0.00","0.00"
"23:29:59","62.7","54.7","75","29.88","5","0","1.2","0.00","0.00"
"23:34:57","62.7","54.4","74.2","29.88","5","0.3","1.2","0.00","0.00"
"23:39:59","62.8","54.4","74","29.88","5","0.3","2.4","0.00","0.00"
"23:44:58","62.8","54.4","74","29.88","5","0","0","0.00","0.00"
"23:49:55","62.7","54.6","74.8","29.88","5","0","0","0.00","0.00"
"23:54:58","62.5","54.5","75","29.88","5","0","0","0.00","0.00"
